[ show orbit diagram ]
Orbital Elements at Epoch 2459000.5 (2020-May-31.0) TDB
Reference: JPL 37 (heliocentric ecliptic J2000)
Element | Value | Uncertainty (1-sigma) | Units |
e | .09339499076033515 | 3.3521e-08 | |
a | 2.249030353089907 | 5.8077e-09 | au |
q | 2.038982184043362 | 7.6876e-08 | au |
i | 6.779348696550946 | 3.5337e-06 | deg |
node | 250.6365899643355 | 3.05e-05 | deg |
peri | 124.9847170984898 | 3.6973e-05 | deg |
M | 31.73058563629797 | 2.0338e-05 | deg |
tp | 2458891.915711752138 (2020-Feb-12.41571175) | 6.9565e-05 | TDB |
period | 1231.945234711123 3.37 | 4.7719e-06 1.306e-08 | d yr |
n | .2922207821067758 | 1.1319e-09 | deg/d |
Q | 2.459078522136453 | 6.3501e-09 | au |
|
| | Orbit Determination Parameters
Additional Information
|
[ show covariance matrix ]
Physical Parameter Table
Parameter |
Symbol |
Value |
Units |
Sigma |
Reference |
Notes |
absolute magnitude |
H |
12.9 |
|
n/a |
MPO502206 |
|
rotation period |
rot_per |
3.5830 |
h |
n/a |
LCDB (Rev. 2020-October); Warner et al., 2009 |
Published Reference List: [Benishek, V.; Pravec, P.; Aznar, A.; Marchini, A.; et al. (2016) CBET 4326.] [Pravec, P.; Wolf, M.; Sarounova, L. (2016) http://www.asu.cas.cz/~ppravec/neo.htm] |
|
5536 Honeycutt | Discovered 1955 Aug. 23 at the Goethe Link Observatory, Indiana University. |
Kent Honeycutt (b. 1940), on the faculty of Indiana University, has made fundamental contributions to our understanding of the structure of accretion disks, cataclysmic variables and cool stars, as well as to the design and construction of innovative instrumentation, including spectrographs and robotic observatories. |
NOTE: some special characters may not display properly (any characters within {} are an attempt to place the proper accent above a character) |
Reference: 20040306/MPCPages.arc | Last Updated: 2004-03-08 |
|
Alternate Designations
1955 QN = 1935 SX = 1955 RC = 1972 QQ = 1979 WA = 1986 VY7 = 1989 UA8 |
|
|
|